Date,TemperatureHighF,TemperatureAvgF,TemperatureLowF,DewpointHighF,DewpointAvgF,DewpointLowF,HumidityHigh,HumidityAvg,HumidityLow,PressureMaxIn,PressureMinIn,WindSpeedMaxMPH,WindSpeedAvgMPH,GustSpeedMaxMPH,PrecipitationSumIn
2013-1-1,42,39,30,32,28,18,76,66,54,30.07,29.88,8,4,13,0.00
2013-1-2,36,30,25,18,16,14,69,58,47,30.24,30.03,10,4,15,0.00
2013-1-3,38,30,25,21,19,18,78,63,46,30.25,30.13,6,2,15,0.00
2013-1-4,40,34,28,25,23,21,74,65,51,30.16,30.02,10,4,19,0.00
2013-1-5,48,36,30,27,24,21,77,61,43,30.35,30.08,8,3,13,0.00
2013-1-6,50,39,32,38,31,25,94,73,51,30.29,30.02,5,2,9,0.02
2013-1-7,50,39,28,33,28,25,86,68,42,30.45,30.10,8,2,14,0.00
2013-1-8,52,37,26,35,30,24,92,77,52,30.49,30.39,6,2,16,0.00
2013-1-9,52,42,30,42,36,28,95,78,60,30.45,30.18,7,2,14,0.00
2013-1-10,53,44,35,35,29,27,79,58,37,30.59,30.30,9,3,15,0.00
2013-1-11,48,44,36,46,39,30,97,84,70,30.58,30.12,4,1,10,0.70
2013-1-12,48,46,44,46,45,44,98,96,92,30.23,30.10,5,2,9,0.01
2013-1-13,51,47,42,50,46,42,98,96,90,30.20,30.05,4,1,8,0.00
2013-1-14,59,52,41,56,46,33,99,84,53,30.33,29.97,6,2,13,0.05
2013-1-15,41,39,37,39,33,30,94,79,69,30.39,30.25,6,2,12,0.21
2013-1-16,40,37,35,39,36,33,97,95,88,30.25,29.83,7,2,12,0.85
2013-1-17,47,41,38,37,33,30,92,75,56,30.15,29.97,7,2,11,0.00
2013-1-18,39,32,26,31,17,9,74,55,35,30.56,30.03,11,4,23,0.00
2013-1-19,54,41,27,30,26,14,72,54,37,30.48,29.99,10,6,17,0.00
2013-1-20,58,45,33,34,26,14,67,49,25,30.09,29.75,12,7,21,0.00
2013-1-21,34,30,27,27,17,12,91,60,44,30.15,29.89,6,2,10,0.00
2013-1-22,27,21,15,18,5,-2,70,49,35,30.28,29.89,13,8,23,0.00
2013-1-23,24,16,12,6,2,-2,77,53,37,30.32,30.23,9,4,19,0.00
2013-1-24,28,19,11,8,4,-1,81,55,30,30.47,30.18,11,5,20,0.00
2013-1-25,26,19,14,18,8,0,90,63,44,30.49,30.12,8,2,11,0.00
2013-1-26,31,22,12,17,12,8,91,68,43,30.44,30.10,8,4,15,0.03
2013-1-27,39,26,15,17,14,9,78,60,37,30.59,30.44,8,3,15,0.00
2013-1-28,36,30,22,35,26,14,96,85,48,30.56,30.07,4,1,9,0.10
2013-1-29,55,43,35,46,40,34,96,90,64,30.19,30.05,3,1,7,0.00
2013-1-30,63,54,44,60,51,42,98,91,79,30.12,29.42,14,4,26,0.03
2013-1-31,62,47,30,59,34,14,96,62,39,29.87,29.13,17,10,44,0.64
2013-2-1,34,29,24,18,14,8,62,52,34,30.30,29.87,12,6,24,0.00
2013-2-2,35,26,19,22,11,6,88,54,33,30.37,30.11,8,4,14,0.00
2013-2-3,33,27,22,25,22,19,93,82,67,30.11,29.84,5,1,11,0.03
2013-2-4,34,28,23,24,15,11,87,59,41,30.05,29.87,11,5,19,0.00
2013-2-5,34,32,27,32,29,24,93,90,85,30.02,29.93,4,1,19,0.01
2013-2-6,44,35,30,31,25,10,94,69,41,30.41,29.96,11,4,16,0.01
2013-2-7,39,31,24,35,19,10,83,62,42,30.55,30.35,3,1,11,0.00
2013-2-8,41,37,29,40,35,28,98,92,83,30.34,29.65,11,6,21,1.05
2013-2-9,36,29,22,30,21,12,97,75,48,30.39,29.79,13,7,24,0.13
2013-2-10,37,26,13,26,17,9,87,68,40,30.54,30.38,5,1,11,0.29
2013-2-11,49,41,31,48,39,26,98,94,80,30.39,29.70,8,1,14,0.38
2013-2-12,49,42,33,42,30,26,98,64,46,30.02,29.78,12,5,20,0.00
2013-2-13,43,35,26,33,28,23,99,77,59,30.01,29.73,3,1,10,0.04
2013-2-14,49,39,31,38,34,30,97,84,50,30.07,29.74,6,2,10,0.06
2013-2-15,58,44,33,42,36,30,93,75,48,30.08,29.96,6,2,13,0.00
2013-2-16,45,38,33,35,30,19,90,73,57,30.00,29.77,10,5,21,0.00
2013-2-17,36,29,20,20,10,3,59,44,30,30.08,29.72,14,9,26,0.00
2013-2-18,39,28,18,16,9,3,57,45,30,30.32,30.08,13,6,23,0.00
2013-2-19,53,40,27,45,32,15,95,75,48,30.27,29.73,12,3,23,0.24
2013-2-20,39,32,26,29,17,11,69,53,40,30.06,29.78,13,8,25,0.00
2013-2-21,39,30,24,18,16,12,68,55,40,30.32,30.04,14,8,27,0.00
2013-2-22,40,33,26,36,26,18,86,75,66,30.44,30.30,6,2,17,0.00
2013-2-23,45,41,38,44,40,36,97,95,86,30.31,29.83,6,3,18,0.52
2013-2-24,52,41,34,41,34,24,97,78,53,30.03,29.78,11,5,16,0.02
2013-2-25,48,38,29,31,28,23,83,65,49,30.28,30.03,7,3,12,0.00
2013-2-26,45,37,27,38,33,25,95,85,73,30.33,29.88,7,3,17,0.18
2013-2-27,55,46,40,53,43,37,98,91,72,29.90,29.52,8,4,18,0.49
2013-2-28,53,44,38,42,36,30,94,74,53,29.68,29.59,7,2,13,0.01
2013-3-1,47,40,34,34,31,28,89,70,52,29.83,29.66,7,4,13,0.00
2013-3-2,44,38,31,28,26,24,82,64,50,29.83,29.74,7,5,17,0.00
2013-3-3,43,34,30,26,22,20,82,61,45,29.82,29.72,9,5,19,0.00
2013-3-4,46,36,28,24,21,17,71,57,41,29.97,29.81,12,7,25,0.00
2013-3-5,52,38,30,34,27,22,90,64,41,30.07,29.96,8,3,15,0.00
2013-3-6,41,40,36,38,35,32,90,83,76,30.01,29.83,18,8,31,0.05
2013-3-7,39,36,34,36,33,30,95,88,75,30.12,29.93,13,8,25,0.37
2013-3-8,41,36,32,35,33,31,96,90,74,30.21,30.04,9,4,17,0.56
2013-3-9,58,43,33,35,29,23,92,60,27,30.37,30.20,8,4,18,0.00
2013-3-10,45,37,28,37,33,27,96,87,71,30.44,30.35,4,1,12,0.00
2013-3-11,53,43,32,48,41,30,98,91,77,30.37,30.14,7,2,14,0.00
2013-3-12,56,51,46,55,49,40,97,92,78,30.15,29.72,9,6,17,0.81
2013-3-13,55,44,36,40,33,25,94,67,35,29.95,29.85,9,3,15,0.00
2013-3-14,45,37,31,28,17,10,70,46,32,30.02,29.90,15,7,23,0.00
2013-3-15,49,40,29,32,21,12,62,48,38,30.05,29.76,9,4,16,0.00
2013-3-16,46,37,33,33,30,24,94,75,56,29.96,29.82,6,2,15,0.06
2013-3-17,42,35,30,33,24,18,94,66,43,30.28,29.96,9,4,16,0.02
2013-3-27,48,42,39,33,31,30,74,65,51,30.03,29.91,8,4,10,0.00
2013-3-28,54,46,36,35,32,30,80,59,41,30.16,30.01,8,4,13,0.00
2013-3-29,58,47,35,33,31,28,80,55,34,30.20,30.10,8,3,13,0.00
2013-3-30,62,46,35,36,31,25,83,59,25,30.22,30.12,6,2,10,0.00
2013-3-31,54,46,34,46,38,28,97,76,52,30.18,29.72,8,3,13,0.34
2013-4-1,66,51,39,48,40,16,97,69,35,29.95,29.66,14,4,17,0.00
2013-4-2,48,39,29,20,16,13,64,41,28,30.13,29.96,11,5,18,0.00
2013-4-3,50,40,31,20,16,13,53,38,27,30.34,30.13,11,5,20,0.00
2013-4-4,49,41,29,33,24,14,65,52,37,30.45,30.15,7,3,10,0.00
2013-4-5,68,50,39,39,31,22,93,55,19,30.15,29.74,9,4,18,0.05
2013-4-6,52,42,36,30,23,15,78,48,24,30.37,30.04,10,4,20,0.00
2013-4-7,56,48,34,46,38,28,84,70,59,30.36,30.06,10,4,19,0.00
2013-4-8,67,58,46,49,46,43,89,66,47,30.12,30.01,6,2,11,0.00
2013-4-9,86,70,52,56,50,40,89,55,20,30.03,29.94,10,4,18,0.00
2013-4-10,71,62,53,56,51,47,96,69,52,29.99,29.80,12,3,14,0.45
2013-4-11,59,54,46,58,51,43,98,91,80,30.07,29.78,6,2,14,0.03
2013-4-12,46,44,42,44,43,41,97,95,85,30.06,29.74,7,5,15,1.04
2013-4-13,54,47,40,45,42,39,97,84,58,30.03,29.76,6,3,10,0.08
2013-4-14,63,52,41,47,38,31,98,65,32,30.26,30.02,11,3,17,0.00
2013-4-15,53,48,44,44,39,34,91,71,56,30.42,30.26,5,2,9,0.00
2013-4-16,63,55,46,55,50,43,92,83,74,30.42,30.17,9,4,19,0.00
2013-4-17,69,60,48,56,49,41,95,70,44,30.33,30.15,7,2,10,0.04
2013-4-18,56,51,45,51,46,41,94,85,75,30.39,30.22,5,2,10,0.01
2013-4-24,57,55,54,53,51,50,92,88,85,29.94,29.89,5,2,11,0.00
2013-4-25,68,56,47,54,38,29,87,54,25,30.32,29.93,10,4,15,0.01
2013-4-26,69,54,40,40,37,31,87,56,26,30.44,30.32,6,2,10,0.00
2013-4-27,67,56,46,38,34,31,70,46,29,30.48,30.34,6,2,15,0.00
2013-4-28,66,55,41,49,38,30,88,57,29,30.37,30.26,7,2,15,0.00
2013-4-29,56,53,51,52,50,47,94,88,74,30.28,30.22,4,2,8,0.24
2013-4-30,62,54,46,53,46,40,93,76,49,30.38,30.24,5,2,11,0.00
2013-5-1,60,51,40,50,44,39,95,79,60,30.53,30.37,5,2,10,0.00
2013-5-2,66,54,40,50,44,39,100,72,47,30.52,30.38,4,1,8,0.00
2013-5-3,58,52,47,48,44,41,92,75,53,30.51,30.41,5,2,10,0.00
2013-5-4,61,51,42,49,44,40,97,78,53,30.42,30.31,5,2,14,0.00
2013-5-5,57,50,46,46,43,40,91,76,63,30.34,30.28,5,2,12,0.00
2013-5-6,61,52,48,51,48,45,95,85,68,30.32,30.21,4,1,10,0.00
2013-5-7,62,54,47,56,52,46,97,92,81,30.22,30.13,3,1,7,0.00
2013-5-8,67,59,56,63,57,53,98,92,75,30.14,30.01,7,2,16,1.25
2013-5-9,60,55,54,59,54,53,98,96,90,30.05,29.98,1,0,5,0.54
2013-5-10,80,64,53,64,58,52,98,81,49,30.05,29.93,6,2,10,0.01
2013-5-11,76,64,61,67,62,58,98,92,72,29.95,29.75,6,2,10,2.59
2013-5-12,72,62,51,62,47,30,98,64,29,30.01,29.71,8,3,12,0.03
2013-5-13,60,52,41,36,32,27,80,50,33,30.15,30.01,6,3,12,0.00
2013-5-14,64,56,44,44,35,25,82,51,24,30.16,30.08,4,2,9,0.00
2013-5-15,73,59,45,60,50,35,84,73,58,30.13,29.73,6,2,11,0.00
2013-5-16,79,66,57,61,56,48,96,74,39,29.88,29.75,4,1,9,0.00
2013-5-17,75,65,54,58,46,41,89,52,32,30.25,29.87,7,2,11,0.00
2013-5-18,64,57,52,56,53,48,93,86,72,30.37,30.25,3,0,5,0.03
2013-5-19,58,57,55,58,56,54,98,97,91,30.35,30.21,5,2,10,0.60
2013-5-20,80,67,58,70,64,58,99,90,70,30.22,30.02,4,1,11,0.02
2013-5-21,90,80,67,73,70,66,98,72,54,30.02,29.90,3,1,8,0.00
2013-5-22,79,71,62,72,66,60,97,87,74,29.98,29.88,5,1,9,0.00
2013-5-23,80,72,65,72,68,63,96,87,69,29.96,29.82,6,3,11,0.16
2013-5-24,69,57,45,66,55,43,98,93,78,30.02,29.75,7,2,16,0.29
2013-5-25,59,50,44,48,43,38,96,80,53,30.08,29.97,9,4,22,0.13
2013-5-26,71,59,48,42,39,35,73,51,29,30.26,30.04,7,4,22,0.01
2013-5-27,79,61,41,46,42,38,91,54,26,30.32,30.19,3,1,12,0.00
2013-5-28,69,59,50,59,54,46,98,85,50,30.28,30.18,3,0,8,0.38
2013-5-29,91,68,56,72,63,56,99,85,47,30.18,30.07,3,1,7,0.01
2013-6-3,70,69,66,69,68,63,97,95,90,29.93,29.88,3,0,5,0.52
2013-6-4,79,67,58,63,49,-100,90,54,33,30.16,29.93,7,-1,12,0.00
2013-6-5,71,63,52,57,52,45,96,70,55,30.27,30.16,12,1,12,0.00
2013-6-6,70,63,57,62,60,56,97,90,71,30.20,30.05,14,1,14,0.04
2013-6-7,68,63,61,67,62,60,99,98,95,30.06,29.62,13,1,14,3.48
2013-6-8,79,68,57,68,63,-100,99,85,67,30.11,29.59,10,-2,13,0.58
2013-6-9,87,71,59,66,62,58,97,77,43,30.23,30.11,10,1,10,0.01
2013-6-10,69,66,64,69,65,62,99,96,87,30.21,29.86,11,1,12,0.26
2013-6-11,84,75,68,71,68,63,99,79,58,29.86,29.69,13,1,15,0.02
2013-6-12,84,72,62,63,59,55,83,64,40,29.91,29.77,20,2,20,0.00
2013-6-13,70,64,59,65,61,57,96,89,74,29.91,29.48,19,2,24,0.91
2013-6-14,76,62,55,61,56,52,96,81,51,29.96,29.53,23,4,23,0.13
2013-6-15,86,71,56,63,57,54,95,67,37,30.07,29.95,12,1,12,0.00
2013-6-16,86,72,59,71,62,56,94,73,47,30.06,29.84,16,1,19,0.00
2013-6-17,91,75,65,72,67,64,97,80,49,29.98,29.89,11,1,11,0.05
2013-6-18,81,68,64,71,66,63,98,91,66,29.95,29.84,11,1,13,0.43
2013-6-19,80,68,59,64,57,49,96,70,37,30.22,29.91,16,3,18,0.00
2013-6-20,80,67,54,63,56,52,97,70,48,30.34,30.22,14,1,14,0.00
2013-6-21,83,69,56,62,57,53,95,67,44,30.37,30.30,15,1,15,0.00
2013-6-22,85,70,57,66,60,56,98,73,45,30.33,30.19,13,1,15,0.00
2013-6-23,89,74,63,75,67,56,96,80,57,30.26,30.12,13,1,14,0.20
2013-6-24,97,79,72,78,72,66,98,79,46,30.13,30.02,12,1,13,0.02
2013-6-25,95,81,68,76,70,65,94,73,48,30.06,29.88,13,1,14,0.01
2013-6-26,94,80,72,75,69,65,96,72,43,29.92,29.83,11,1,12,0.18
2013-6-27,86,76,71,76,72,70,98,88,69,29.88,29.64,16,2,16,0.06
2013-6-28,91,79,71,74,71,67,93,80,53,29.65,29.54,11,2,11,0.02
2013-6-29,86,75,68,74,70,66,97,85,58,29.77,29.55,17,1,17,0.00
2013-6-30,84,75,69,76,72,68,98,91,75,29.97,29.77,11,1,12,0.08
2013-7-1,84,73,69,77,72,68,98,95,77,30.11,29.96,12,1,13,0.91
2013-7-2,84,75,70,77,73,70,98,92,78,30.26,30.11,14,1,16,0.17
2013-7-3,87,76,70,78,73,69,98,90,70,30.32,30.23,11,1,11,0.17
2013-7-4,94,82,73,78,74,72,98,81,55,30.32,30.22,12,1,13,0.00
2013-7-5,96,83,73,78,74,70,94,75,48,30.29,30.16,11,1,11,0.00
2013-7-6,97,86,75,79,75,73,93,72,49,30.21,30.09,15,1,15,0.00
2013-7-7,98,86,75,79,75,71,92,71,51,30.14,29.99,10,1,11,0.00
2013-7-8,93,80,72,75,71,68,88,75,50,30.12,30.04,10,1,13,0.00
2013-7-9,92,80,69,75,71,67,95,77,57,30.14,30.05,9,0,10,0.00
2013-7-10,91,80,72,79,74,69,95,82,63,30.09,29.88,15,1,16,0.34
2013-7-11,88,79,75,76,73,69,96,83,58,29.97,29.88,11,1,11,0.12
2013-7-12,76,72,68,71,68,65,97,87,74,30.14,29.97,15,2,18,0.50
2013-7-13,85,76,69,78,73,68,98,92,77,30.34,30.13,12,1,12,0.00
2013-7-14,92,81,72,78,75,71,98,82,60,30.40,30.30,12,1,12,0.00
2013-7-15,100,85,75,81,76,72,94,77,49,30.32,30.18,12,1,12,0.04
2013-7-16,98,84,74,75,71,67,95,70,39,30.25,30.18,12,1,12,0.00
2013-7-17,98,84,73,76,72,70,95,71,46,30.24,30.13,10,1,11,0.00
2013-7-18,102,88,75,80,75,71,88,68,43,30.14,30.02,9,1,9,0.00
2013-7-19,99,89,79,82,78,75,92,71,50,30.04,29.87,14,1,15,0.00
2013-7-20,97,86,78,78,74,71,83,70,49,29.89,29.78,16,1,19,0.00
2013-7-21,86,78,74,73,70,66,92,77,54,30.01,29.88,11,1,15,0.00
2013-7-22,85,78,74,78,75,72,98,91,75,30.01,29.85,9,1,9,0.36
2013-7-23,93,80,71,77,74,70,99,84,55,29.86,29.63,9,1,9,0.42
2013-7-24,88,78,71,72,68,60,93,72,56,29.97,29.67,12,2,13,0.00
2013-7-25,72,67,65,62,59,56,89,77,63,30.09,29.97,17,4,17,0.00
2013-7-26,86,73,65,68,64,60,89,75,47,30.11,30.04,14,2,14,0.00
2013-7-27,83,73,62,71,66,61,98,81,55,30.12,30.02,15,1,15,0.00
2013-7-28,79,72,64,72,69,63,98,90,76,30.06,29.97,15,1,17,0.18
2013-7-29,88,75,66,73,66,56,98,76,45,30.17,30.01,12,1,12,0.06
2013-7-30,86,72,59,62,59,56,92,67,39,30.23,30.16,12,1,14,0.00
2013-7-31,83,72,60,65,62,58,96,73,49,30.22,30.10,9,1,10,0.00
2013-8-1,74,70,67,69,66,63,98,90,77,30.11,29.89,10,0,15,0.67
2013-8-2,88,76,67,68,67,64,98,76,46,29.99,29.85,12,1,12,0.00
2013-8-3,78,71,66,70,67,64,94,87,73,29.99,29.92,11,0,11,0.05
2013-8-4,83,72,61,65,60,53,98,70,42,30.03,29.91,14,2,15,0.00
2013-8-5,81,69,56,61,54,48,89,61,33,30.11,30.03,12,2,15,0.00
2013-8-6,81,70,58,63,59,55,95,71,42,30.18,30.09,13,1,14,0.00
2013-8-7,80,72,67,70,67,63,92,83,65,30.20,30.12,14,2,14,0.00
2013-8-8,83,74,70,76,72,68,98,91,78,30.13,30.06,14,1,16,0.84
2013-8-9,88,78,73,78,75,71,97,89,71,30.09,29.87,13,1,15,0.06
2013-8-10,86,77,69,74,68,63,97,76,51,30.10,29.92,12,1,13,0.01
2013-8-11,81,71,62,68,62,58,95,75,50,30.19,30.09,12,1,12,0.00
2013-8-12,78,72,68,73,69,66,97,91,80,30.10,29.99,7,0,7,0.12
2013-8-13,77,71,68,73,69,66,99,95,79,30.00,29.77,15,1,15,2.32
2013-8-14,77,69,61,69,56,51,96,64,46,30.11,29.80,19,3,20,0.00
2013-8-15,80,66,53,59,55,50,94,70,40,30.21,30.11,11,1,11,0.00
2013-8-16,82,68,55,63,57,53,96,72,40,30.27,30.18,10,1,10,0.00
2013-8-17,83,68,56,64,59,55,98,75,47,30.33,30.27,8,0,9,0.00
2013-8-18,78,68,61,67,62,58,96,83,57,30.32,30.19,10,0,10,0.01
2013-8-19,82,69,59,66,62,57,95,79,51,30.20,30.10,9,0,9,0.00
2013-8-20,87,74,64,72,68,63,98,81,55,30.19,30.11,9,1,11,0.01
2013-8-21,91,77,66,74,69,62,97,79,38,30.24,30.13,9,1,11,0.00
2013-8-22,86,74,70,76,71,68,96,90,69,30.13,29.93,13,0,15,0.47
2013-8-23,85,74,65,69,63,56,97,73,38,30.15,29.93,15,2,15,0.01
2013-8-24,79,70,60,64,59,56,95,71,49,30.41,30.14,17,2,17,0.00
2013-8-25,87,69,56,64,57,52,98,69,34,30.47,30.31,9,1,10,0.00
2013-8-26,87,74,64,69,63,54,84,70,51,30.32,29.98,12,1,14,0.00
2013-8-27,87,77,69,72,69,67,95,78,54,29.98,29.89,18,2,18,0.07
2013-8-28,83,74,68,74,70,66,98,88,69,29.95,29.89,6,0,7,0.00
2013-8-29,80,72,69,71,68,66,98,88,69,30.10,29.93,12,1,12,0.01
2013-8-30,86,75,68,72,69,65,91,81,60,30.09,29.93,9,1,11,0.00
2013-8-31,91,78,70,77,72,68,95,82,61,29.95,29.85,11,2,12,0.00
2013-9-1,86,77,72,77,73,70,96,87,69,29.92,29.85,14,1,16,0.00
2013-9-2,80,75,71,76,73,70,98,95,85,29.86,29.78,5,0,6,0.06
2013-9-3,86,74,64,74,67,59,99,82,52,29.95,29.78,14,1,15,0.01
2013-9-4,85,71,60,61,59,56,93,70,41,30.07,29.95,13,1,13,0.00
2013-9-5,80,70,60,64,56,46,90,66,37,30.20,30.01,17,2,17,0.00
2013-9-6,73,63,52,51,49,46,89,61,40,30.31,30.19,12,2,12,0.00
2013-9-7,83,64,48,58,52,46,97,70,31,30.20,29.97,13,1,13,0.00
2013-9-8,86,72,63,68,60,47,92,66,44,30.12,29.88,18,2,18,0.00
2013-9-9,73,66,60,60,55,47,89,68,50,30.29,30.13,12,1,14,0.00
2013-9-10,89,77,64,75,70,60,89,79,63,30.23,30.11,14,1,14,0.00
2013-9-11,96,83,74,79,74,71,94,76,56,30.18,30.03,11,1,12,0.00
2013-9-12,89,76,69,76,71,68,98,87,61,30.06,29.75,20,1,20,1.15
2013-9-13,81,70,60,69,63,52,99,81,51,29.92,29.70,17,2,17,0.09
2013-9-14,70,60,51,52,50,47,91,71,51,30.20,29.92,15,2,17,0.00
2013-9-15,76,60,45,58,50,44,97,74,39,30.29,30.15,13,1,13,0.00
2013-9-16,72,62,56,61,57,53,95,84,66,30.28,30.10,12,1,13,0.05
2013-9-17,66,56,46,54,44,39,94,65,43,30.49,30.28,20,3,20,0.01
2013-9-18,71,56,42,54,48,41,98,78,45,30.41,30.26,13,1,13,0.00
2013-9-19,80,61,47,58,53,46,98,77,41,30.27,30.14,11,1,12,0.00
2013-9-20,77,64,51,63,57,50,98,81,53,30.16,30.06,12,1,13,0.00
2013-9-21,77,66,52,69,62,51,98,90,67,30.07,29.73,18,2,19,0.10
2013-9-22,74,65,56,68,55,45,97,72,44,29.97,29.70,15,2,20,0.54
2013-9-23,69,57,45,48,45,42,92,66,44,30.10,29.97,15,2,16,0.00
2013-9-24,75,58,44,54,48,42,95,72,41,30.11,29.94,11,1,11,0.00
2013-9-25,75,60,46,56,51,44,96,75,43,30.01,29.93,8,0,8,0.00
2013-9-26,70,59,49,62,55,48,98,88,68,30.15,29.99,13,1,18,0.00
2013-9-27,69,60,51,58,55,50,99,83,62,30.32,30.15,10,1,11,0.00
2013-9-28,74,63,54,57,56,52,95,77,53,30.37,30.29,12,2,12,0.00
2013-9-29,71,59,50,58,53,49,100,83,57,30.29,30.14,13,1,13,0.01
2013-9-30,74,59,47,60,53,46,100,84,53,30.14,30.04,9,1,10,0.00
2013-10-1,85,66,52,62,57,51,98,77,42,30.07,29.96,6,1,9,0.01
2013-10-2,86,70,56,65,61,55,96,75,45,30.07,29.97,14,1,15,0.00
2013-10-3,79,67,57,64,59,55,98,77,50,30.18,30.07,8,0,9,0.00
2013-10-4,89,71,58,69,63,56,98,79,47,30.13,30.03,9,0,10,0.00
2013-10-5,75,67,64,67,64,63,97,91,74,30.16,30.06,9,1,9,0.02
2013-10-6,71,67,65,68,66,64,98,96,91,30.15,30.08,9,1,9,0.00
2013-10-7,78,69,59,72,66,56,98,92,77,30.08,29.85,28,3,28,0.28
2013-10-8,68,60,51,56,49,46,92,70,47,30.36,30.06,19,2,19,0.00
2013-10-9,63,60,58,53,51,42,80,73,53,30.43,30.32,20,3,20,0.00
2013-10-10,63,60,56,60,56,52,94,88,79,30.32,30.10,19,3,19,0.13
2013-10-11,65,62,61,62,60,58,95,92,88,30.12,30.04,18,3,18,0.35
2013-10-12,69,63,60,59,55,48,88,76,61,30.32,30.10,20,3,22,0.00
2013-10-13,65,60,57,56,53,50,86,79,66,30.43,30.32,18,3,19,0.00
2013-10-14,66,57,48,54,51,47,95,81,58,30.41,30.32,10,1,10,0.00
2013-10-15,70,56,45,58,51,44,98,86,57,30.32,30.16,10,1,10,0.00
2013-10-16,66,61,58,60,58,56,96,91,79,30.16,29.98,9,1,9,0.00
2013-10-17,75,64,60,64,62,59,97,91,68,29.99,29.76,9,1,11,0.00
2013-10-18,71,61,49,63,50,43,94,67,43,30.05,29.75,20,2,20,0.02
2013-10-19,66,54,43,57,49,41,96,83,63,30.06,29.82,9,1,11,0.01
2013-10-20,66,55,44,56,43,36,93,67,40,30.14,29.82,16,2,18,0.01
2013-10-21,70,53,39,48,42,37,95,71,34,30.22,30.05,16,1,18,0.00
2013-10-22,74,56,43,53,47,42,97,76,43,30.05,29.81,15,1,16,0.00
2013-10-23,54,49,40,46,42,38,92,77,58,29.88,29.66,12,1,12,0.02
2013-10-24,58,45,36,39,34,30,92,68,38,30.09,29.83,16,2,17,0.01
2013-10-25,56,45,37,36,33,30,83,63,40,30.30,30.08,19,2,19,0.00
2013-10-26,58,45,32,37,34,30,92,67,38,30.29,29.96,18,2,20,0.00
2013-10-27,62,50,39,38,35,33,80,58,38,30.19,29.92,17,2,17,0.00
2013-10-28,65,48,33,40,36,31,92,68,37,30.35,30.19,12,1,13,0.00
2013-10-29,58,49,40,43,41,38,92,74,53,30.46,30.35,11,1,12,0.00
2013-10-30,61,50,40,54,47,38,96,88,75,30.40,30.24,9,0,9,0.00
2013-10-31,69,61,52,62,57,50,97,87,76,30.28,29.87,14,2,14,0.03
2013-11-1,70,65,57,64,60,55,96,84,65,29.87,29.62,27,3,27,0.19
2013-11-2,67,57,51,58,53,43,98,86,66,29.84,29.67,8,0,8,0.01
2013-11-3,52,46,37,44,36,25,89,69,50,30.50,29.84,19,3,20,0.00
2013-11-4,48,41,35,36,27,20,81,58,44,30.70,30.50,19,3,19,0.00
2013-11-5,56,49,42,44,41,37,92,74,62,30.70,30.53,11,1,11,0.00
2013-11-6,63,52,36,56,47,35,98,84,60,30.55,30.11,12,2,13,0.00
2013-11-7,65,56,38,60,52,33,94,86,67,30.12,29.81,22,3,22,0.08
2013-11-8,52,43,36,37,32,28,92,65,45,30.29,30.00,19,3,22,0.00
2013-11-9,53,43,31,37,30,27,87,63,40,30.36,30.06,12,2,12,0.00
2013-11-10,64,51,42,39,35,30,76,56,36,30.12,29.88,24,4,25,0.00
2013-11-11,58,49,38,38,31,27,65,51,36,30.28,30.02,16,3,18,0.00
2013-11-12,51,39,30,39,28,19,92,65,51,30.35,29.99,25,5,25,0.05
2013-11-13,43,33,27,21,18,13,71,56,31,30.43,30.34,19,4,20,0.00
2013-11-14,57,43,30,23,20,15,68,43,20,30.35,30.23,18,3,21,0.00
2013-11-15,63,45,32,39,31,23,85,62,26,30.32,30.21,8,0,10,0.00
2013-11-16,56,46,39,49,42,33,100,86,72,30.39,30.28,9,1,10,0.06
2013-11-17,64,56,44,61,54,43,100,96,90,30.32,29.85,12,1,14,0.00
2013-11-18,70,61,51,62,44,29,98,58,31,29.85,29.66,23,4,23,0.28
2013-11-19,52,45,36,30,27,25,63,50,41,30.40,29.84,26,6,26,0.00
2013-11-20,45,38,32,25,22,17,68,54,33,30.65,30.40,16,3,16,0.00
2013-11-21,53,44,29,44,36,22,82,74,61,30.65,30.45,12,1,13,0.00
2013-11-22,60,53,48,52,48,42,92,85,74,30.44,29.96,16,2,16,0.01
2013-11-23,53,44,32,50,29,14,91,57,38,30.09,29.96,24,6,28,0.00
2013-11-24,32,27,23,14,6,3,47,39,31,30.46,30.06,31,8,34,0.00
2013-11-25,39,30,21,19,13,6,66,51,38,30.57,30.40,13,2,15,0.00
2013-11-26,54,40,32,53,31,19,97,72,46,30.41,29.79,18,2,21,0.54
2013-11-27,62,48,34,61,45,23,98,91,63,29.82,29.38,32,7,32,1.25
2013-11-28,39,33,27,24,18,14,73,56,36,30.54,29.82,26,5,26,0.01
2013-11-29,42,34,26,24,22,19,87,63,43,30.78,30.53,16,2,16,0.00
2013-11-30,43,35,25,38,27,18,84,72,63,30.80,30.40,6,1,11,0.00
2013-12-1,52,42,32,38,35,29,90,77,51,30.40,30.06,9,1,9,0.00
2013-12-2,53,41,33,42,35,31,95,80,51,30.07,29.93,6,0,6,0.00
2013-12-3,57,42,33,43,38,32,97,85,52,30.06,29.92,8,0,8,0.00
2013-12-4,51,43,33,47,40,31,96,92,83,30.18,30.06,8,0,8,0.00
2013-12-5,62,54,45,57,52,44,98,94,83,30.17,29.98,13,1,13,0.01
2013-12-6,62,50,37,61,48,36,98,95,90,30.19,29.92,17,3,18,0.36
2013-12-7,43,37,31,36,31,21,95,78,58,30.57,30.13,20,4,20,0.17
2013-12-8,35,31,28,34,25,19,96,79,61,30.65,30.39,14,2,14,0.07
2013-12-9,43,38,34,42,37,33,98,97,95,30.40,30.02,21,3,21,0.76
2013-12-10,35,33,28,33,30,21,96,91,75,30.21,29.90,14,3,14,0.09
2013-12-11,36,30,25,22,19,16,79,66,49,30.41,30.21,15,3,16,0.02
2013-12-12,32,26,21,19,12,8,78,58,37,30.42,30.24,18,3,19,0.01
2013-12-13,39,28,19,22,16,10,80,60,43,30.39,30.20,20,2,23,0.00
2013-12-14,48,33,27,48,30,21,98,88,73,30.53,29.74,22,3,22,0.70
2013-12-15,51,38,32,51,34,23,98,85,63,29.92,29.52,28,4,28,0.39
2013-12-16,34,28,20,24,15,11,79,59,42,30.29,29.91,22,4,22,0.00
2013-12-17,40,31,23,38,27,15,95,87,68,30.29,29.96,11,2,12,0.16
2013-12-18,40,31,24,28,23,21,91,75,53,30.24,29.96,19,3,19,0.00
2013-12-19,51,37,26,32,27,21,84,70,45,30.26,30.09,14,1,15,0.00
2013-12-20,56,45,31,51,36,29,93,73,47,30.16,30.03,17,2,17,0.00
2013-12-21,70,59,52,57,52,48,88,78,59,30.06,29.93,15,3,16,0.00
2013-12-22,72,66,62,65,60,57,89,84,74,30.02,29.84,22,5,22,0.02
2013-12-23,64,56,42,62,54,35,98,93,78,30.21,29.93,22,2,22,0.58
2013-12-24,44,37,28,36,26,15,78,63,46,30.41,30.14,21,5,21,0.01
2013-12-25,31,26,20,21,13,10,73,57,44,30.59,30.40,20,3,20,0.00
2013-12-26,42,30,23,29,24,18,89,77,59,30.49,30.22,9,1,20,0.00
2013-12-27,46,33,24,26,22,18,92,68,36,30.44,30.32,14,1,15,0.00
2013-12-28,59,42,25,32,28,22,92,60,35,30.36,30.14,22,3,24,0.00
2013-12-29,51,44,41,51,38,29,98,82,57,30.14,29.43,19,2,19,1.28
2013-12-30,48,38,25,40,30,14,95,76,59,30.24,29.75,19,4,19,0.00
2013-12-31,38,29,22,25,17,12,72,60,52,30.36,30.12,20,4,21,0.00
2014-1-1,38,30,23,30,19,12,78,63,50,30.48,30.29,17,1,17,0.00
2014-1-2,36,31,23,32,28,21,95,89,77,30.29,29.67,25,7,25,0.00